WetterOnline ( http://www.wetteronline.de )

Wetter aktuell Schwerin

Aktuelles Wetter: Schwerin (68m)

6-stündlich | Neueste Meldungen
Ortszeit Temperatur Wetter
Di, 17.07. 2:00 17.0° C wolkenlos
Mo, 16.07. 20:00 25.0° C wolkenlos
Mo, 16.07. 14:00 25.7° C wolkenlos
Mo, 16.07. 8:00 18.6° C wolkenlos
Mo, 16.07. 2:00 14.8° C wolkenlos
So, 15.07. 20:00 22.1° C wolkenlos
So, 15.07. 14:00 21.1° C bewölkt
So, 15.07. 8:00 15.6° C wolkenlos
Ortszeit Temperatur Wetter
Di, 17.07. 3:30 16.5° C fast wolkenlos
Di, 17.07. 3:20 16.5° C fast wolkenlos
Di, 17.07. 3:10 16.5° C leicht bewölkt
Di, 17.07. 3:00 16.5° C fast wolkenlos
Di, 17.07. 2:50 16.5° C fast wolkenlos
Di, 17.07. 2:40 16.6° C fast wolkenlos
Di, 17.07. 2:30 17.0° C fast wolkenlos
Di, 17.07. 2:00 17.0° C wolkenlos
Di, 17.07. 1:30 17.1° C leicht bewölkt
Di, 17.07. 1:00 17.5° C leicht bewölkt
Di, 17.07. 0:30 18.1° C wolkenlos
Ortszeit Relative Feuchte Sichtweite
Di, 17.07. 2:00 90% 11 km
Mo, 16.07. 20:00 45% 30 km
Mo, 16.07. 14:00 43% 23 km
Mo, 16.07. 8:00 81% 15 km
Mo, 16.07. 2:00 95% 9 km
So, 15.07. 20:00 51% 35 km
So, 15.07. 14:00 56% 40 km
So, 15.07. 8:00 81% 25 km
Ortszeit Relative Feuchte Sichtweite
Di, 17.07. 3:30 94% 6 km
Di, 17.07. 3:20 94% -
Di, 17.07. 3:10 93% -
Di, 17.07. 3:00 93% 7 km
Di, 17.07. 2:50 93% -
Di, 17.07. 2:40 93% -
Di, 17.07. 2:30 91% 10 km
Di, 17.07. 2:00 90% 11 km
Di, 17.07. 1:30 86% 14 km
Di, 17.07. 1:00 84% 15 km
Di, 17.07. 0:30 81% 16 km
Ortszeit Niederschlagsmenge Niederschlagsart
Di, 17.07. 2:00 0.0 l/m2 in 6 Std. -
Mo, 16.07. 20:00 0.0 l/m2 in 12 Std. -
Mo, 16.07. 14:00 0.0 l/m2 in 6 Std. -
Mo, 16.07. 8:00 0.0 l/m2 in 12 Std. -
Mo, 16.07. 2:00 0.0 l/m2 in 6 Std. -
So, 15.07. 20:00 0.0 l/m2 in 12 Std. -
So, 15.07. 14:00 0.0 l/m2 in 6 Std. -
So, 15.07. 8:00 0.0 l/m2 in 12 Std. -
Ortszeit Niederschlagsmenge Niederschlagsart
Di, 17.07. 3:30 0.0 l/m2 in 1 Std. -
Di, 17.07. 3:20 keine Meldung -
Di, 17.07. 3:10 keine Meldung -
Di, 17.07. 3:00 0.0 l/m2 in 1 Std. -
Di, 17.07. 2:50 keine Meldung -
Di, 17.07. 2:40 keine Meldung -
Di, 17.07. 2:30 0.0 l/m2 in 1 Std. -
Di, 17.07. 2:00 0.0 l/m2 in 1 Std. -
Di, 17.07. 1:30 0.0 l/m2 in 1 Std. -
Di, 17.07. 1:00 0.0 l/m2 in 1 Std. -
Di, 17.07. 0:30 0.0 l/m2 in 1 Std. -
Ortszeit Stärke Spitze Richtung
km/h Bft. km/h Grad Sektor
Di, 17.07. 2:00 6 1 19 10° N
Mo, 16.07. 20:00 11 2 25 10° N
Mo, 16.07. 14:00 11 2 22 50° NO
Mo, 16.07. 8:00 7 2 11 10° N
Mo, 16.07. 2:00 4 1 18 330° NW
So, 15.07. 20:00 9 2 26 20° N
So, 15.07. 14:00 7 2 22 20° N
So, 15.07. 8:00 6 1 15 350° N
Ortszeit Stärke Spitze Richtung
km/h Bft. km/h Grad Sektor
Di, 17.07. 3:30 6 1 6 350° N
Di, 17.07. 3:20 6 1 - 350° N
Di, 17.07. 3:10 6 1 - 360° N
Di, 17.07. 3:00 6 1 9 350° N
Di, 17.07. 2:50 6 1 - 350° N
Di, 17.07. 2:40 6 1 - 10° N
Di, 17.07. 2:30 7 2 7 40° NO
Di, 17.07. 2:00 6 1 7 10° N
Di, 17.07. 1:30 6 1 7 360° N
Di, 17.07. 1:00 7 2 11 10° N
Di, 17.07. 0:30 6 1 9 10° N
Ortszeit Untergrenze Bedeckung Gattung
total tief tief mittel hoch
Di, 17.07. 2:00 - 0/8 0/8 - - -
Mo, 16.07. 20:00 - 0/8 0/8 - - -
Mo, 16.07. 14:00 - 0/8 0/8 - - -
Mo, 16.07. 8:00 - 0/8 0/8 - - -
Mo, 16.07. 2:00 - 0/8 0/8 - - -
So, 15.07. 20:00 - 0/8 0/8 - - -
So, 15.07. 14:00 1050 m 7/8 7/8 - - -
So, 15.07. 8:00 - 0/8 0/8 - - -
Ortszeit Bedeckungsgrad in Achtel und Wolkenuntergrenze
Di, 17.07. 3:30 1(3300m)
Di, 17.07. 3:20 1(3300m)
Di, 17.07. 3:10 2(3300m)
Di, 17.07. 3:00 1(3300m)
Di, 17.07. 2:50 1(3300m)
Di, 17.07. 2:40 1(3300m)
Di, 17.07. 2:30 1(3300m)
Di, 17.07. 2:00 keine Wolken
Di, 17.07. 1:30 2(3300m)
Di, 17.07. 1:00 2(3300m)
Di, 17.07. 0:30 keine Wolken
Ortszeit Luftdruck NN (hPa) Tendenz (hPa in 3 Std.)
Di, 17.07. 2:00 1013 0,0
Mo, 16.07. 20:00 1013 - 0,5
Mo, 16.07. 14:00 1015 - 0,7
Mo, 16.07. 8:00 1016 - 0,2
Mo, 16.07. 2:00 1017 - 0,1
So, 15.07. 20:00 1016 - 1,0
So, 15.07. 14:00 1019 - 0,3
So, 15.07. 8:00 1019 + 0,2
Ortszeit Luftdruck NN (hPa) Tendenz (hPa in 3 Std.)
Di, 17.07. 3:30 1013 - 0,5
Di, 17.07. 3:20 1013 keine Meldung
Di, 17.07. 3:10 1013 keine Meldung
Di, 17.07. 3:00 1013 - 0,3
Di, 17.07. 2:50 1013 keine Meldung
Di, 17.07. 2:40 1013 keine Meldung
Di, 17.07. 2:30 1013 - 0,1
Di, 17.07. 2:00 1013 0,0
Di, 17.07. 1:30 1014 + 0,1
Di, 17.07. 1:00 1014 + 0,2
Di, 17.07. 0:30 1013 + 0,2
Ortszeit Schneehöhe (cm)
Di, 17.07. 2:00 -
Mo, 16.07. 20:00 -
Mo, 16.07. 14:00 -
Mo, 16.07. 8:00 -
Mo, 16.07. 2:00 -
So, 15.07. 20:00 -
So, 15.07. 14:00 -
So, 15.07. 8:00 -
Ortszeit Schneehöhe (cm)
Di, 17.07. 3:30 -
Di, 17.07. 3:20 -
Di, 17.07. 3:10 -
Di, 17.07. 3:00 -
Di, 17.07. 2:50 -
Di, 17.07. 2:40 -
Di, 17.07. 2:30 -
Di, 17.07. 2:00 -
Di, 17.07. 1:30 -
Di, 17.07. 1:00 -
Di, 17.07. 0:30 -
Link zu dieser Seite / Seite empfehlen

Das Wetter in ...